カタログに戻る

STARLINK-37998

運用中通信SSO
NORAD 69679·PAYLOAD·🇺🇸 United States

打ち上げ Jun 25, 2026 から Vandenberg Space Force Base

Loading…

次のパス (今後24時間)

TLE

最新Source: CelesTrak SupGP

元期: Sep 15, 2026, 03:16 UTC

1 69679C 26145C   26258.13659722 -.00032338  00000+0 -10037-2 0  2584
2 69679  97.2848 104.8515 0002094  95.9328 113.9927 15.33460199    16

AllMySatでSTARLINK-37998をリアルタイム追跡

Download on the App Store